Погода в Лесной

Россия / Новгородская область     58°18′09″N   30°53′08″E
темп.,
°C
ветер,
м/с
пор.,
м/с
влажн.,
%
обл.,
%
осадки,
мм/ч
давл.,
гПа
погр.,
м
17 мая, пн
пн1700:00+12в22905 0.0 101111
03:00+11юв34968 0.0 101248
06:00+11юв369588 0.0 1012102
09:00+13вюв3586100 0.0 1012185
12:00+17вюв4873100 0.0 1011871
15:00+19вюв4765100 0.0 1009864
18:00+18в4870100 0.0 1007226
21:00+16вюв61379100 0.3 1005291
18 мая, вт
вт1800:00+14вюв51295100 0.9 1004259
03:00+14вюв5119769 1.4 1004221
06:00+14юв41098100 0.0 1003245
09:00+16юв589098 0.0 1003344
12:00+20ююв4875100 1.3 1003929
15:00+22ю3861100 2.1 10021511
18:00+19ююз51085100 8.1 1003329
21:00+14юв3398100 12.3 100442
19 мая, ср
ср1900:00+13всв2399100 3.8 100445
03:00+14юв379882 3.9 1003125
06:00+13ююв489784 0.0 1003189
09:00+15ююв4790100 0.0 1004310
12:00+17ююв5782100 1.0 1004704
15:00+19ююв5772100 1.8 1004817
18:00+16ююв4889100 4.2 1004314
21:00+15юз4891100 9.6 1006168
20 мая, чт
чт2000:00+13з229928 0.0 100728
03:00+11сз339983 0.0 100861
06:00+11с3499100 0.0 1008103
09:00+13с469699 0.0 1007262
12:00+13с489882 2.1 1006235
15:00+17с6984100 2.3 1003352
18:00+14св589989 5.9 999149
21:00+14юв6129533 7.2 999427
21 мая, пт
пт2100:00+11юв510945 0.0 1000241
03:00+11вюв5119739 0.0 999287
06:00+12ююв61190100 0.3 999467
09:00+10юв71190100 0.6 999603
12:00+11юв61189100 0.2 1000554
15:00+10юв4892100 1.1 1000356
18:00+11ююв4792100 0.8 999290
21:00+10ююз5997100 1.6 999428